Hourly Weather Hotynec

Today, 22 April, Thursday

Time Temperature Precipitation Wind Pressure Humidity
00:00 +3°C° 0 mm 4 mps 738 mmHg 93%
01:00 +2°C° 0 mm 3 mps 738 mmHg 93%
02:00 +2°C° 0 mm 3 mps 738 mmHg 93%
03:00 +3°C° 0 mm 3 mps 739 mmHg 92%
04:00 +3°C° 0 mm 4 mps 739 mmHg 92%
05:00 +3°C° 0 mm 4 mps 739 mmHg 91%
06:00 +4°C° 0 mm 4 mps 739 mmHg 87%
07:00 +5°C° 0 mm 4 mps 739 mmHg 84%
08:00 +6°C° 0 mm 4 mps 740 mmHg 80%
09:00 +8°C° 0.2 mm 5 mps 740 mmHg 73%
10:00 +10°C° 0.2 mm 5 mps 740 mmHg 67%
11:00 +13°C° 0.2 mm 5 mps 740 mmHg 61%
12:00 +13°C° 0.4 mm 5 mps 740 mmHg 58%
13:00 +14°C° 0.4 mm 5 mps 739 mmHg 56%
14:00 +14°C° 0.4 mm 5 mps 739 mmHg 54%
15:00 +14°C° 0.3 mm 5 mps 739 mmHg 58%
16:00 +13°C° 0.3 mm 5 mps 739 mmHg 61%
17:00 +13°C° 0.3 mm 5 mps 739 mmHg 64%
18:00 +12°C° 0.3 mm 5 mps 739 mmHg 70%
19:00 +10°C° 0.3 mm 4 mps 740 mmHg 76%
20:00 +8°C° 0.3 mm 4 mps 740 mmHg 83%
21:00 +8°C° 0.1 mm 4 mps 740 mmHg 83%
22:00 +7°C° 0.1 mm 4 mps 739 mmHg 83%
23:00 +7°C° 0.1 mm 5 mps 739 mmHg 83%

Tomorrow, 23 April, Friday

Time Temperature Precipitation Wind Pressure Humidity
00:00 +7°C° 0 mm 5 mps 739 mmHg 84%
01:00 +6°C° 0 mm 5 mps 739 mmHg 84%
02:00 +6°C° 0 mm 5 mps 739 mmHg 84%
03:00 +6°C° 0 mm 5 mps 739 mmHg 83%
04:00 +6°C° 0 mm 5 mps 739 mmHg 83%
05:00 +6°C° 0 mm 5 mps 738 mmHg 82%
06:00 +8°C° 0 mm 6 mps 738 mmHg 80%
07:00 +9°C° 0 mm 6 mps 738 mmHg 77%
08:00 +10°C° 0 mm 7 mps 739 mmHg 74%
09:00 +9°C° 0.8 mm 6 mps 739 mmHg 78%
10:00 +8°C° 0.8 mm 6 mps 739 mmHg 82%
11:00 +8°C° 0.8 mm 5 mps 739 mmHg 86%
12:00 +7°C° 1.2 mm 4 mps 739 mmHg 87%
13:00 +7°C° 1.2 mm 3 mps 739 mmHg 87%
14:00 +6°C° 1.2 mm 2 mps 739 mmHg 88%
15:00 +7°C° 0.9 mm 2 mps 738 mmHg 86%
16:00 +8°C° 0.9 mm 1 mps 738 mmHg 84%
17:00 +8°C° 0.9 mm 1 mps 738 mmHg 83%
18:00 +7°C° 0.2 mm 1 mps 738 mmHg 84%
19:00 +7°C° 0.2 mm 1 mps 738 mmHg 85%
20:00 +5°C° 0.2 mm 2 mps 738 mmHg 86%
21:00 +5°C° 0.3 mm 2 mps 737 mmHg 84%
22:00 +5°C° 0.3 mm 2 mps 737 mmHg 83%
23:00 +5°C° 0.3 mm 2 mps 737 mmHg 81%

Day after tomorrow, 24 April, Saturday

Time Temperature Precipitation Wind Pressure Humidity
00:00 +3°C° 0.1 mm 3 mps 737 mmHg 83%
01:00 +3°C° 0.1 mm 3 mps 736 mmHg 85%
02:00 +3°C° 0.1 mm 3 mps 736 mmHg 87%
03:00 +2°C° 0 mm 3 mps 736 mmHg 88%
04:00 +1°C° 0 mm 3 mps 736 mmHg 89%
05:00 0°C° 0 mm 3 mps 736 mmHg 91%
06:00 +2°C° 0 mm 3 mps 736 mmHg 84%
07:00 +3°C° 0 mm 3 mps 736 mmHg 78%
08:00 +4°C° 0 mm 4 mps 736 mmHg 71%
09:00 +5°C° 0.1 mm 4 mps 736 mmHg 64%
10:00 +6°C° 0.1 mm 4 mps 736 mmHg 57%
11:00 +7°C° 0.1 mm 4 mps 736 mmHg 50%
12:00 +6°C° 0.2 mm 5 mps 736 mmHg 54%
13:00 +6°C° 0.2 mm 5 mps 736 mmHg 58%
14:00 +4°C° 0.2 mm 6 mps 736 mmHg 62%
15:00 +4°C° 0.2 mm 6 mps 736 mmHg 63%
16:00 +3°C° 0.2 mm 6 mps 736 mmHg 64%
17:00 +3°C° 0.2 mm 6 mps 736 mmHg 66%
18:00 +2°C° 0.1 mm 5 mps 737 mmHg 69%
19:00 +1°C° 0.1 mm 5 mps 737 mmHg 72%
20:00 0°C° 0.1 mm 5 mps 738 mmHg 75%
21:00 0°C° 0 mm 5 mps 738 mmHg 78%
22:00 -1°C° 0 mm 5 mps 738 mmHg 80%
23:00 -1°C° 0 mm 4 mps 738 mmHg 83%

25 April, Sunday

Time Temperature Precipitation Wind Pressure Humidity
00:00 -1°C° 0 mm 4 mps 738 mmHg 84%
01:00 -2°C° 0 mm 4 mps 738 mmHg 85%
02:00 -2°C° 0 mm 4 mps 738 mmHg 86%
03:00 -2°C° 0 mm 4 mps 738 mmHg 87%
04:00 -2°C° 0 mm 4 mps 738 mmHg 87%
05:00 -2°C° 0 mm 4 mps 738 mmHg 88%
06:00 -1°C° 0 mm 5 mps 738 mmHg 78%
07:00 0°C° 0 mm 5 mps 738 mmHg 69%
08:00 +2°C° 0 mm 6 mps 739 mmHg 59%
09:00 +2°C° 0.1 mm 6 mps 739 mmHg 56%
10:00 +3°C° 0.1 mm 7 mps 738 mmHg 53%
11:00 +4°C° 0.1 mm 7 mps 738 mmHg 50%
12:00 +4°C° 0.1 mm 7 mps 738 mmHg 47%
13:00 +5°C° 0.1 mm 7 mps 738 mmHg 44%
14:00 +5°C° 0.1 mm 7 mps 738 mmHg 41%
15:00 +5°C° 0.1 mm 7 mps 738 mmHg 45%
16:00 +4°C° 0.1 mm 6 mps 738 mmHg 50%
17:00 +5°C° 0.1 mm 5 mps 738 mmHg 55%
18:00 +3°C° 0 mm 4 mps 738 mmHg 61%
19:00 +2°C° 0 mm 3 mps 739 mmHg 67%
20:00 +1°C° 0 mm 2 mps 739 mmHg 73%
21:00 +1°C° 0 mm 2 mps 739 mmHg 75%
22:00 -1°C° 0 mm 2 mps 739 mmHg 77%
23:00 -1°C° 0 mm 2 mps 739 mmHg 79%

26 April, Monday

Time Temperature Precipitation Wind Pressure Humidity
00:00 -1°C° 0 mm 2 mps 739 mmHg 80%
01:00 -1°C° 0 mm 2 mps 739 mmHg 80%
02:00 -2°C° 0 mm 2 mps 739 mmHg 81%
03:00 -2°C° 0 mm 2 mps 739 mmHg 80%
04:00 -2°C° 0 mm 2 mps 739 mmHg 80%
05:00 -1°C° 0 mm 2 mps 738 mmHg 79%
06:00 +1°C° 0 mm 2 mps 738 mmHg 71%
07:00 +2°C° 0 mm 3 mps 738 mmHg 64%
08:00 +4°C° 0 mm 3 mps 738 mmHg 56%
09:00 +5°C° 0.3 mm 3 mps 738 mmHg 54%
10:00 +5°C° 0.3 mm 4 mps 738 mmHg 51%
11:00 +6°C° 0.3 mm 4 mps 737 mmHg 48%
12:00 +6°C° 0.3 mm 4 mps 737 mmHg 49%
13:00 +6°C° 0.3 mm 4 mps 737 mmHg 49%
14:00 +6°C° 0.3 mm 4 mps 736 mmHg 50%
15:00 +6°C° 0.5 mm 4 mps 736 mmHg 54%
16:00 +5°C° 0.5 mm 4 mps 736 mmHg 59%
17:00 +5°C° 0.5 mm 4 mps 736 mmHg 64%
18:00 +3°C° 0.2 mm 3 mps 736 mmHg 71%
19:00 +3°C° 0.2 mm 2 mps 736 mmHg 78%
20:00 +2°C° 0.2 mm 2 mps 736 mmHg 85%
21:00 +2°C° 0 mm 2 mps 736 mmHg 86%
22:00 +1°C° 0 mm 2 mps 736 mmHg 87%
23:00 +1°C° 0 mm 2 mps 736 mmHg 87%

27 April, Tuesday

Time Temperature Precipitation Wind Pressure Humidity
00:00 +1°C° 0 mm 2 mps 736 mmHg 88%
01:00 -1°C° 0 mm 3 mps 736 mmHg 89%
02:00 -2°C° 0 mm 3 mps 736 mmHg 90%
03:00 -2°C° 0 mm 3 mps 736 mmHg 90%
04:00 -2°C° 0 mm 3 mps 736 mmHg 89%
05:00 -2°C° 0 mm 3 mps 736 mmHg 89%
06:00 0°C° 0 mm 3 mps 736 mmHg 82%
07:00 0°C° 0 mm 4 mps 736 mmHg 75%
08:00 +2°C° 0 mm 5 mps 737 mmHg 68%
09:00 +3°C° 0.2 mm 5 mps 737 mmHg 67%
10:00 +3°C° 0.2 mm 6 mps 737 mmHg 67%
11:00 +3°C° 0.2 mm 7 mps 737 mmHg 66%
12:00 +3°C° 0.1 mm 6 mps 737 mmHg 66%
13:00 +4°C° 0.1 mm 6 mps 737 mmHg 65%
14:00 +4°C° 0.1 mm 6 mps 737 mmHg 65%
15:00 +3°C° 0 mm 6 mps 737 mmHg 66%
16:00 +3°C° 0 mm 5 mps 737 mmHg 67%
17:00 +3°C° 0 mm 5 mps 738 mmHg 69%
18:00 +2°C° 0 mm 5 mps 738 mmHg 73%
19:00 +1°C° 0 mm 4 mps 738 mmHg 78%
20:00 +2°C° 0 mm 3 mps 738 mmHg 82%
21:00 +2°C° 0 mm 3 mps 738 mmHg 82%
22:00 +2°C° 0 mm 3 mps 738 mmHg 82%
23:00 +2°C° 0 mm 3 mps 738 mmHg 82%
Show more

We Need Your Consent

Meteoprog and our Service Providers may store and access personal data such as cookies, device identifiers or other similar technologies on your device and process such data to personalise content and ads, as well as provide social media features and to analyse the traffic.

  • Store and/or access information on your device

    Cookies, device identifiers or other information can be stored or accessed on your device for the purposes indicated above.

  • Personalised ads and content, ad and content measurement, audience insights, and products development

    Ads and content can be personalised based on a profile. More data can be added to better personalise ads and content. Ad and content performance can be measured. Insights about the audience who saw the ads and content can be derived. Such data can be used to develop or improve user’s experience, systems and software.

By clicking ‘I Agree’ you will allow the use of indicated cookies, device identifiers, web beacons or other similar technologies. Your settings can be changed in the browser on your device.

For certain purposes, legitimate interests may be relied on, rather than consent. You can read more about this in our Privacy and Cookie Policy.